DLH742 EDDM-RJBB

Flight info

Callsign DLH742
Flight time N/A
Altitude 35000
Route KIRDI3S KIRDI DCT BUWOQ DCT BEGLA DCT GYR/N0480F370 DCT OLMIP DCT SOKRU DCT OPT DCT LUGEB DCT UDROS DCT CRM UM11 DELEL/N0494F390 UM11 REBLO M11 LUSAL N199 RASAM L88 METKA B476 TIMGA A480 OTBOR N147 ELAHA Z621 ARBOL M610 RULAD/K0893S1190 A343 NLT/K0893S1250 A343 POSOT B215 FKG W188 LIKMI W270 DKO W69 HUR B339 LADIX W34 VAPGU W100 ORAVA W201 UNSEK A326 DONVO G597 AGAVO Y644 EGOBA Y697 LANAT Y597 MIHOU/N0432F350 Y361 SAEKI Y36 ATMUG ATMUGC
Aircraft A359/H-SDE2E3GHIJ1J3J4J5M1P2RWXYZ/LB1D1

Departure

Time 2026-05-07 21:23
Airport Munich Airport (EDDM)

Arrival

Time N/A
Airport Kansai International Airport (RJBB)
Time Latitude Longitude Altitude Speed Heading
2026-05-07 20:56 48.35619 11.79707 1480 ft 0 kts 83°
2026-05-07 21:10 48.35618 11.79695 1489 ft 4 kts 83°
2026-05-07 21:10 48.35615 11.79655 1491 ft 4 kts 83°
2026-05-07 21:10 48.35612 11.79614 1491 ft 4 kts 83°
2026-05-07 21:10 48.35609 11.79574 1478 ft 4 kts 83°
2026-05-07 21:11 48.35606 11.79543 1491 ft 4 kts 76°
2026-05-07 21:11 48.35596 11.79509 1491 ft 4 kts 36°
2026-05-07 21:11 48.35549 11.79506 1491 ft 2 kts 353°
2026-05-07 21:12 48.35547 11.79506 1491 ft 1 kts 353°
2026-05-07 21:14 48.35549 11.79505 1491 ft 2 kts 353°
2026-05-07 21:14 48.35589 11.79498 1480 ft 10 kts 353°
2026-05-07 21:15 48.35673 11.79483 1491 ft 13 kts 353°
2026-05-07 21:15 48.35762 11.79467 1478 ft 13 kts 353°
2026-05-07 21:15 48.35849 11.79451 1478 ft 13 kts 352°
2026-05-07 21:15 48.35913 11.79376 1476 ft 12 kts 313°
2026-05-07 21:16 48.35984 11.79335 1478 ft 11 kts 350°
2026-05-07 21:16 48.36061 11.79325 1486 ft 11 kts 354°
2026-05-07 21:16 48.36138 11.79313 1477 ft 11 kts 354°
2026-05-07 21:16 48.36196 11.79268 1476 ft 9 kts 285°
2026-05-07 21:17 48.36189 11.79160 1478 ft 14 kts 263°
2026-05-07 21:17 48.36177 11.78988 1477 ft 17 kts 263°
2026-05-07 21:17 48.36163 11.78813 1477 ft 17 kts 263°
2026-05-07 21:17 48.36150 11.78640 1477 ft 16 kts 263°
2026-05-07 21:18 48.36137 11.78471 1481 ft 16 kts 263°
2026-05-07 21:18 48.36124 11.78307 1478 ft 16 kts 262°
2026-05-07 21:18 48.36111 11.78144 1484 ft 16 kts 263°
2026-05-07 21:18 48.36098 11.77984 1489 ft 15 kts 264°
2026-05-07 21:19 48.36086 11.77826 1477 ft 15 kts 263°
2026-05-07 21:19 48.36074 11.77670 1480 ft 15 kts 263°
2026-05-07 21:19 48.36062 11.77516 1477 ft 15 kts 263°
2026-05-07 21:19 48.36051 11.77364 1490 ft 15 kts 263°
2026-05-07 21:20 48.36039 11.77214 1485 ft 14 kts 263°
2026-05-07 21:20 48.36013 11.77072 1480 ft 14 kts 253°
2026-05-07 21:20 48.35999 11.76928 1488 ft 14 kts 264°
2026-05-07 21:20 48.36041 11.76821 1485 ft 12 kts 341°
2026-05-07 21:21 48.36124 11.76800 1491 ft 12 kts 352°
2026-05-07 21:21 48.36208 11.76794 1477 ft 12 kts
2026-05-07 21:21 48.36276 11.76849 1491 ft 11 kts 57°
2026-05-07 21:21 48.36290 11.76935 1488 ft 2 kts 83°
2026-05-07 21:22 48.36290 11.76944 1491 ft 6 kts 83°
2026-05-07 21:22 48.36315 11.77267 1491 ft 64 kts 83°
2026-05-07 21:22 48.36393 11.78277 1478 ft 128 kts 83°
2026-05-07 21:22 48.36517 11.79877 1506 ft 181 kts 83°
2026-05-07 21:23 48.36675 11.81803 2122 ft 184 kts 82°
2026-05-07 21:23 48.36863 11.83690 2915 ft 183 kts 80°
2026-05-07 21:23 48.37083 11.85589 3252 ft 188 kts 79°
2026-05-07 21:23 48.37335 11.87604 3369 ft 205 kts 78°
2026-05-07 21:24 48.37623 11.89831 3387 ft 229 kts 80°
2026-05-07 21:24 48.37606 11.92306 3541 ft 245 kts 102°
2026-05-07 21:24 48.37135 11.94865 3696 ft 262 kts 108°
2026-05-07 21:24 48.36528 11.97498 4086 ft 269 kts 110°
2026-05-07 21:25 48.35891 12.00175 4533 ft 275 kts 110°
2026-05-07 21:25 48.35248 12.02891 5055 ft 277 kts 110°
2026-05-07 21:25 48.34608 12.05640 5556 ft 280 kts 109°
2026-05-07 21:25 48.34009 12.08452 6007 ft 285 kts 107°
2026-05-07 21:26 48.33429 12.11325 6455 ft 290 kts 107°
2026-05-07 21:26 48.32846 12.14240 6999 ft 291 kts 107°
2026-05-07 21:26 48.32249 12.17140 7607 ft 290 kts 108°
2026-05-07 21:26 48.31597 12.20037 8074 ft 295 kts 110°
2026-05-07 21:27 48.30898 12.22946 8571 ft 296 kts 110°
2026-05-07 21:27 48.30221 12.25859 9121 ft 296 kts 110°
2026-05-07 21:27 48.29545 12.28809 9601 ft 299 kts 110°
2026-05-07 21:27 48.28867 12.31778 10107 ft 302 kts 110°
2026-05-07 21:28 48.28177 12.34802 10404 ft 313 kts 109°
2026-05-07 21:28 48.27458 12.37952 10619 ft 326 kts 109°
2026-05-07 21:28 48.26720 12.41240 10847 ft 339 kts 108°
2026-05-07 21:28 48.26020 12.44639 11067 ft 351 kts 107°
2026-05-07 21:29 48.25318 12.48210 11264 ft 363 kts 107°
2026-05-07 21:29 48.24603 12.51896 11465 ft 374 kts 107°
2026-05-07 21:29 48.23859 12.55694 11660 ft 385 kts 107°
2026-05-07 21:29 48.23087 12.59600 11854 ft 395 kts 107°
2026-05-07 21:30 48.22288 12.63594 12086 ft 402 kts 107°
2026-05-07 21:30 48.21470 12.67629 12448 ft 406 kts 107°
2026-05-07 21:30 48.20642 12.71698 12851 ft 409 kts 107°
2026-05-07 21:30 48.19807 12.75787 13254 ft 411 kts 107°
2026-05-07 21:31 48.18966 12.79903 13642 ft 413 kts 107°
2026-05-07 21:31 48.18124 12.84028 14032 ft 416 kts 107°
2026-05-07 21:31 48.17282 12.88143 14408 ft 418 kts 107°
2026-05-07 21:31 48.16425 12.92314 14802 ft 420 kts 108°
2026-05-07 21:32 48.15562 12.96499 15178 ft 422 kts 108°
2026-05-07 21:32 48.14693 13.00709 15534 ft 425 kts 108°
2026-05-07 21:32 48.13816 13.04945 15885 ft 427 kts 108°
2026-05-07 21:32 48.12934 13.09201 16237 ft 429 kts 108°
2026-05-07 21:33 48.12047 13.13476 16593 ft 431 kts 108°
2026-05-07 21:33 48.11154 13.17769 16942 ft 434 kts 108°
2026-05-07 21:33 48.10253 13.22088 17279 ft 436 kts 108°
2026-05-07 21:33 48.09345 13.26433 17631 ft 438 kts 108°
2026-05-07 21:34 48.08432 13.30802 17977 ft 440 kts 108°
2026-05-07 21:34 48.07514 13.35176 18322 ft 442 kts 108°
2026-05-07 21:34 48.06904 13.38083 18541 ft 443 kts 108°
2026-05-07 21:34 48.05978 13.42485 18880 ft 445 kts 108°
2026-05-07 21:35 48.05044 13.46912 19219 ft 447 kts 108°
2026-05-07 21:35 48.04104 13.51357 19522 ft 450 kts 108°
2026-05-07 21:35 48.03156 13.55830 19824 ft 452 kts 108°
2026-05-07 21:35 48.02202 13.60327 20131 ft 454 kts 108°
2026-05-07 21:36 48.01243 13.64830 20450 ft 456 kts 109°
2026-05-07 21:36 48.00277 13.69358 20777 ft 458 kts 109°
2026-05-07 21:36 47.99306 13.73898 21098 ft 460 kts 109°
2026-05-07 21:36 47.98339 13.78410 21378 ft 462 kts 109°
2026-05-07 21:37 47.97357 13.82987 21674 ft 464 kts 109°
2026-05-07 21:37 47.96370 13.87584 21994 ft 466 kts 109°
2026-05-07 21:37 47.95377 13.92189 22290 ft 467 kts 109°
2026-05-07 21:37 47.94374 13.96818 22583 ft 469 kts 109°
2026-05-07 21:38 47.93382 14.01388 22857 ft 471 kts 109°
2026-05-07 21:38 47.92354 14.06115 23166 ft 473 kts 109°
2026-05-07 21:38 47.91338 14.10785 23471 ft 474 kts 109°
2026-05-07 21:38 47.90315 14.15474 23740 ft 477 kts 110°
2026-05-07 21:39 47.89285 14.20184 24000 ft 479 kts 110°
2026-05-07 21:39 47.88251 14.24906 24270 ft 480 kts 110°
2026-05-07 21:39 47.87210 14.29647 24551 ft 482 kts 110°
2026-05-07 21:39 47.86177 14.34342 24819 ft 484 kts 110°
2026-05-07 21:40 47.85125 14.39108 25088 ft 485 kts 110°
2026-05-07 21:40 47.84064 14.43894 25331 ft 487 kts 110°
2026-05-07 21:40 47.83000 14.48692 25603 ft 489 kts 110°
2026-05-07 21:40 47.81933 14.53497 25875 ft 490 kts 110°
2026-05-07 21:41 47.80857 14.58321 26140 ft 492 kts 110°
2026-05-07 21:41 47.79774 14.63176 26381 ft 494 kts 110°
2026-05-07 21:41 47.78690 14.68030 26665 ft 495 kts 110°
2026-05-07 21:41 47.77602 14.72888 26940 ft 496 kts 110°
2026-05-07 21:42 47.76508 14.77764 27175 ft 498 kts 110°
2026-05-07 21:42 47.75407 14.82651 27408 ft 499 kts 111°
2026-05-07 21:42 47.74314 14.87487 27622 ft 500 kts 111°
2026-05-07 21:42 47.73207 14.92387 27864 ft 500 kts 111°
2026-05-07 21:43 47.72094 14.97293 28106 ft 501 kts 111°
2026-05-07 21:43 47.70977 15.02205 28335 ft 502 kts 111°
2026-05-07 21:43 47.69858 15.07116 28580 ft 502 kts 111°
2026-05-07 21:43 47.68735 15.12038 28801 ft 503 kts 111°
2026-05-07 21:44 47.67609 15.16952 29040 ft 503 kts 111°
2026-05-07 21:44 47.66484 15.21851 29426 ft 500 kts 112°
2026-05-07 21:44 47.65366 15.26720 29771 ft 497 kts 112°
2026-05-07 21:44 47.64251 15.31563 30091 ft 495 kts 112°
2026-05-07 21:45 47.63140 15.36380 30408 ft 493 kts 112°
2026-05-07 21:45 47.62027 15.41187 30595 ft 494 kts 112°
2026-05-07 21:45 47.60908 15.46009 30768 ft 495 kts 112°
2026-05-07 21:45 47.59786 15.50827 30984 ft 495 kts 112°
2026-05-07 21:46 47.58662 15.55646 31187 ft 494 kts 112°
2026-05-07 21:46 47.57535 15.60467 31339 ft 495 kts 113°
2026-05-07 21:46 47.56406 15.65289 31534 ft 495 kts 113°
2026-05-07 21:46 47.55278 15.70106 31714 ft 496 kts 113°
2026-05-07 21:47 47.54145 15.74930 31855 ft 497 kts 113°
2026-05-07 21:47 47.53005 15.79767 31987 ft 498 kts 113°
2026-05-07 21:47 47.51875 15.84548 32166 ft 498 kts 114°
2026-05-07 21:47 47.50729 15.89390 32312 ft 499 kts 114°
2026-05-07 21:48 47.49578 15.94247 32425 ft 500 kts 114°
2026-05-07 21:48 47.48426 15.99102 32527 ft 501 kts 114°
2026-05-07 21:48 47.47265 16.03967 32656 ft 502 kts 114°
2026-05-07 21:48 47.46103 16.08829 32849 ft 501 kts 114°
2026-05-07 21:49 47.44938 16.13686 32956 ft 502 kts 114°
2026-05-07 21:49 47.43763 16.18573 32973 ft 506 kts 114°
2026-05-07 21:49 47.41402 16.28365 33050 ft 512 kts 114°
2026-05-07 21:50 47.39012 16.38280 33055 ft 512 kts 114°
2026-05-07 21:50 47.36611 16.48190 33054 ft 512 kts 114°
2026-05-07 21:51 47.34200 16.58089 33054 ft 513 kts 114°
2026-05-07 21:51 47.31776 16.67972 33054 ft 513 kts 114°
2026-05-07 21:52 47.29351 16.77812 33054 ft 514 kts 115°
2026-05-07 21:52 47.26904 16.87711 33054 ft 514 kts 115°
2026-05-07 21:53 47.24450 16.97595 33046 ft 514 kts 115°
2026-05-07 21:53 47.21985 17.07479 33047 ft 514 kts 115°
2026-05-07 21:54 47.19511 17.17353 33046 ft 514 kts 115°
2026-05-07 21:54 47.17044 17.27160 33047 ft 515 kts 115°
2026-05-07 21:55 47.14553 17.37024 33047 ft 514 kts 115°
2026-05-07 21:55 47.12064 17.46858 33046 ft 513 kts 115°
2026-05-07 21:56 47.09557 17.56691 33045 ft 513 kts 115°
2026-05-07 21:56 47.07046 17.66491 33047 ft 513 kts 115°
2026-05-07 21:57 47.04526 17.76290 33048 ft 513 kts 115°
2026-05-07 21:57 47.02014 17.86020 33047 ft 513 kts 115°
2026-05-07 21:58 46.99476 17.95808 33046 ft 514 kts 115°
2026-05-07 21:58 46.96924 18.05606 33047 ft 514 kts 115°
2026-05-07 21:59 46.94375 18.15363 33047 ft 512 kts 115°
2026-05-07 21:59 46.91822 18.25100 33048 ft 512 kts 115°
2026-05-07 22:00 46.89278 18.34758 33044 ft 512 kts 115°
2026-05-07 22:00 46.86705 18.44463 33044 ft 511 kts 115°
2026-05-07 22:01 46.84132 18.54144 33046 ft 511 kts 116°
2026-05-07 22:01 46.81548 18.63829 33041 ft 511 kts 116°
2026-05-07 22:02 46.78955 18.73509 33047 ft 511 kts 116°
2026-05-07 22:02 46.76353 18.83178 33047 ft 511 kts 116°
2026-05-07 22:03 46.73749 18.92819 33046 ft 511 kts 116°
2026-05-07 22:03 46.71141 19.02443 33047 ft 510 kts 116°
2026-05-07 22:04 46.68538 19.11989 33046 ft 510 kts 116°
2026-05-07 22:04 46.65911 19.21591 33047 ft 509 kts 116°
2026-05-07 22:05 46.63281 19.31172 33047 ft 509 kts 116°
2026-05-07 22:05 46.60646 19.40735 33045 ft 509 kts 116°
2026-05-07 22:06 46.58005 19.50274 33046 ft 508 kts 116°
2026-05-07 22:06 46.55371 19.59744 33046 ft 509 kts 116°
2026-05-07 22:07 46.52714 19.69274 33047 ft 508 kts 116°
2026-05-07 22:07 46.50053 19.78776 33047 ft 508 kts 116°
2026-05-07 22:08 46.47377 19.88284 33047 ft 508 kts 116°
2026-05-07 22:08 46.44701 19.97772 33046 ft 508 kts 116°
2026-05-07 22:09 46.42014 20.07255 33046 ft 507 kts 116°
2026-05-07 22:09 46.39322 20.16712 33046 ft 507 kts 116°
2026-05-07 22:10 46.36621 20.26160 33046 ft 507 kts 116°
2026-05-07 22:10 46.33935 20.35537 33047 ft 507 kts 116°
2026-05-07 22:11 46.31223 20.44960 33048 ft 506 kts 116°
2026-05-07 22:11 46.28510 20.54355 33045 ft 506 kts 116°
2026-05-07 22:12 46.25785 20.63748 33044 ft 506 kts 116°
2026-05-07 22:12 46.23054 20.73131 33046 ft 505 kts 116°
2026-05-07 22:13 46.20339 20.82419 33047 ft 505 kts 116°
2026-05-07 22:13 46.17597 20.91762 33046 ft 504 kts 116°
2026-05-07 22:14 46.14853 21.01080 33047 ft 504 kts 116°
2026-05-07 22:14 46.12110 21.10368 33048 ft 503 kts 116°
2026-05-07 22:15 46.09356 21.19647 33040 ft 503 kts 116°
2026-05-07 22:15 46.06595 21.28902 33043 ft 502 kts 116°
2026-05-07 22:16 46.03834 21.38146 33047 ft 502 kts 116°
2026-05-07 22:16 46.01088 21.47306 33046 ft 502 kts 116°
2026-05-07 22:17 45.98311 21.56531 33044 ft 502 kts 116°
2026-05-07 22:17 45.95523 21.65755 33046 ft 503 kts 116°
2026-05-07 22:18 45.91334 21.79560 33043 ft 502 kts 116°
2026-05-07 22:19 45.88531 21.88749 33046 ft 502 kts 116°
2026-05-07 22:19 45.85740 21.97867 33047 ft 501 kts 116°
2026-05-07 22:20 45.82927 22.07025 33047 ft 502 kts 116°
2026-05-07 22:20 45.80107 22.16174 33055 ft 501 kts 116°
2026-05-07 22:21 45.77285 22.25300 33046 ft 501 kts 116°
2026-05-07 22:21 45.74452 22.34425 33055 ft 502 kts 116°
2026-05-07 22:22 45.72087 22.42010 33055 ft 502 kts 116°
2026-05-07 22:22 45.69233 22.51144 33054 ft 503 kts 116°
2026-05-07 22:23 45.65908 22.61743 33055 ft 503 kts 117°
2026-05-07 22:23 45.63504 22.69374 33063 ft 503 kts 117°
2026-05-07 22:24 45.60637 22.78440 33063 ft 503 kts 117°
2026-05-07 22:24 45.57748 22.87557 33063 ft 504 kts 117°
2026-05-07 22:25 45.54855 22.96664 33064 ft 503 kts 117°
2026-05-07 22:25 45.51953 23.05758 33063 ft 503 kts 117°
2026-05-07 22:26 45.49044 23.14835 33064 ft 503 kts 117°
2026-05-07 22:26 45.46660 23.24167 33064 ft 506 kts 108°
2026-05-07 22:27 45.44945 23.33922 33072 ft 508 kts 105°
2026-05-07 22:27 45.43384 23.43727 33073 ft 508 kts 105°
2026-05-07 22:28 45.41811 23.53519 33072 ft 508 kts 105°
2026-05-07 22:28 45.40205 23.63292 33071 ft 507 kts 105°
2026-05-07 22:29 45.38573 23.73054 33072 ft 508 kts 106°
2026-05-07 22:29 45.36927 23.82826 33074 ft 508 kts 106°
2026-05-07 22:30 45.35275 23.92589 33072 ft 507 kts 106°
2026-05-07 22:30 45.33617 24.02344 33075 ft 507 kts 106°
2026-05-07 22:31 45.31952 24.12091 33073 ft 507 kts 106°
2026-05-07 22:31 45.30281 24.21808 33074 ft 507 kts 106°
2026-05-07 22:32 45.28601 24.31534 33073 ft 507 kts 106°
2026-05-07 22:32 45.26922 24.41193 33072 ft 506 kts 106°
2026-05-07 22:33 45.25227 24.50901 33073 ft 506 kts 106°
2026-05-07 22:33 45.23528 24.60599 33072 ft 506 kts 106°
2026-05-07 22:34 45.21816 24.70295 33073 ft 506 kts 106°
2026-05-07 22:34 45.20100 24.79979 33073 ft 506 kts 106°
2026-05-07 22:35 45.18381 24.89600 33073 ft 506 kts 106°
2026-05-07 22:35 45.16645 24.99266 33072 ft 506 kts 106°
2026-05-07 22:36 45.14900 25.08936 33073 ft 506 kts 106°
2026-05-07 22:36 45.13149 25.18596 33073 ft 506 kts 106°
2026-05-07 22:37 45.11385 25.28268 33073 ft 506 kts 106°
2026-05-07 22:37 45.09624 25.37868 33064 ft 506 kts 106°
2026-05-07 22:38 45.07847 25.47515 33064 ft 506 kts 106°
2026-05-07 22:38 45.06063 25.57155 33062 ft 506 kts 106°
2026-05-07 22:39 45.04268 25.66803 33064 ft 506 kts 106°
2026-05-07 22:39 45.02466 25.76438 33054 ft 506 kts 106°
2026-05-07 22:40 45.00657 25.86060 33054 ft 507 kts 106°
2026-05-07 22:40 44.98850 25.95614 33054 ft 507 kts 106°
2026-05-07 22:41 44.97023 26.05237 33055 ft 507 kts 105°
2026-05-07 22:41 44.95184 26.14867 33055 ft 507 kts 105°
2026-05-07 22:42 44.93338 26.24502 33054 ft 508 kts 105°
2026-05-07 22:42 44.91494 26.34062 33055 ft 507 kts 105°
2026-05-07 22:43 44.89631 26.43660 33054 ft 508 kts 105°
2026-05-07 22:43 44.87758 26.53269 33054 ft 508 kts 105°
2026-05-07 22:44 44.85875 26.62880 33054 ft 508 kts 105°
2026-05-07 22:44 44.83989 26.72481 33062 ft 508 kts 105°
2026-05-07 22:45 44.82092 26.82081 33063 ft 508 kts 105°